Hourly Weather Roundup
Issued by NWS Central Illinois

Home | Current Version | Previous Version | Text Only | Print | Product List | Glossary On
Versions: 1 2 3 4 5 6 7 8 9 10 11 12 13 14 15 16 17 18 19 20 21 22 23 24 25 26 27 28 29 30 31 32 33 34 35 36 37 38 39 40 41 42 43 44 45 46 47 48 49 50
000
NZUS43 KILX 081110
HWRILX

AREA WEATHER ROUNDUP
NATIONAL WEATHER SERVICE, LINCOLN IL
500 AM CST THU DEC 08 2016


CITY           SKY/WX    TMP DP  RH WIND       PRES   REMARKS
BLOOMINGTON    MOCLDY    18  12  77 W20G26    30.27R WCI   2
CHAMPAIGN      CLEAR     20  12  71 W16       30.28R WCI   6
DANVILLE       CLEAR     20  14  77 W14       30.24R WCI   7
DECATUR        CLEAR     20  11  68 W15       30.32R WCI   6
EFFINGHAM      CLEAR     23  16  73 W10G18    30.36R WCI  12
FLORA          PTCLDY    25  15  67 W9        30.37R WCI  15
GALESBURG      CLOUDY    18  12  78 W15G22    30.31R WCI   4
JACKSONVILLE   PTCLDY    19  11  73 W10       30.37R WCI   7
LACON          FLURRIES  20  12  72 W13G21    30.28R WCI   7
LAWRENCEVILLE  PTCLDY    25  16  68 W16G22    30.34R WCI  12
LITCHFIELD     PTCLDY    21  14  73 W15       30.36S WCI   8
$$


CITY           SKY/WX    TMP DP  RH WIND       PRES   REMARKS
LINCOLN        PTCLDY    20  14  75 W7        30.32R WCI  11
MACOMB         CLOUDY    18  12  79 W22       30.36R WCI   0
MATTOON        CLEAR     20  12  71 W13       30.31R WCI   7
MT CARMEL AP   PTCLDY    25  15  65 NW13      30.35R WCI  14
OLNEY-NOBLE AP PTCLDY    25  18  74 NW15      30.36R WCI  12
PARIS          PTCLDY    21  15  79 W14G21    30.31R WCI   8
PEORIA         FLURRIES  19  11  70 W14G22    30.31R WCI   6
PONTIAC        MIX PCPN  22  16  79 W21G29    30.26R WCI   6
RANTOUL        PTCLDY    22  16  78 W13       30.26R WCI   9
SPRINGFIELD    CLEAR     21  12  68 W13       30.35R WCI   9
TAYLORVILLE    CLEAR     20  13  73 W14       30.35R WCI   7
$$

...REGIONAL REPORTS...


CITY           SKY/WX    TMP DP  RH WIND       PRES   REMARKS
CHICAGO O`HARE FLURRIES  21  12  68 W20G28    30.16R WCI   6
KANKAKEE       CLOUDY    21  13  72 W22       30.23R WCI   5
MOLINE         PTCLDY    18   8  65 NW21G28   30.30R WCI   1
MOUNT STERLING PTCLDY    17  10  74 W12       30.36R WCI   4
MOUNT VERNON   NOT AVBL
PITTSFIELD     PTCLDY    19  11  70 W13       30.39R WCI   7
QUINCY         CLEAR     18   9  68 W21G26    30.38R WCI   1
ROCKFORD       FLURRIES  18   9  68 W20G28    30.20R WCI   2
$$


CITY           SKY/WX    TMP DP  RH WIND       PRES   REMARKS
BURLINGTON     PTCLDY    17   9  70 W14G24    30.35R WCI   3
CEDAR RAPIDS   CLEAR     12   8  84 W21G28    30.30R WCI  -7
DES MOINES     PTCLDY    13   4  67 NW18      30.41R WCI  -4
KIRKSVILLE     CLEAR     15   8  73 W12       30.42R WCI   2
OTTUMWA        CLOUDY    16   6  65 NW18G29   30.36S WCI   0
ST LOUIS       PTCLDY    23  10  57 W17       30.41R WCI   9
$$


CITY           SKY/WX    TMP DP  RH WIND       PRES   REMARKS
TERRE HAUTE    CLEAR     22  13  68 W10       30.31R WCI  11
EVANSVILLE     MOCLDY    28  17  63 NW14G23   30.36R WCI  17
INDIANAPOLIS   MOCLDY    23  14  68 W20       30.25R WCI   8
LAFAYETTE      MOCLDY    20  14  77 W14       30.24R WCI   7
MADISON        CLOUDY    15   7  70 W10       30.14R WCI   2
MILWAUKEE      CLOUDY    22  11  62 W16G24    30.10R WCI   8
$$






USA.gov is the U.S. government's official web portal to all federal, state and local government web resources and services.